Tracking 29892 objects as of 21-Nov-2024
HD Live streaming from Space Station
objects crossing your sky now

SMDC ONE 2.4

Track SMDC ONE 2.4 now!
10-day predictions
SMDC ONE 2.4 is classified as:


NORAD ID: 39472
Int'l Code: 2013-072L
Perigee: 422.8 km
Apogee: 651.4 km
Inclination: 120.5 °
Period: 95.2 minutes
Semi major axis: 6908 km
RCS: Unknown
Launch date: December 6, 2013
Source: United States (US)
Launch site: AIR FORCE WESTERN TEST RANGE (AFWTR)

SMDC ONE 2.4 is a military satellite that will test advanced nanosatellite communications technologies.
Your satellite tracking list
Your tracking list is empty




NASA's NSSDC Master Catalog

Two Line Element Set (TLE):
1 39472U 13072L   24325.17413805  .00046678  00000-0  19262-2 0  9996
2 39472 120.4985  37.8961 0165435 137.1476 224.2618 15.12041963 28550
Source of the keplerian elements: AFSPC